Time,TemperatureF,DewpointF,PressureIn,WindDirection,WindDirectionDegrees,WindSpeedMPH,WindSpeedGustMPH,Humidity,HourlyPrecipIn,Conditions,Clouds,dailyrainin,SoftwareType,DateUTC
2013-02-12 00:00:00,44.8,39.3,30.17,North,355,0.0,0.0,81,0.00,,BKN180,0.00,VWS V14.01,2013-02-12 06:00:00,
2013-02-12 00:05:00,44.8,39.3,30.17,North,355,0.0,0.0,81,0.00,,BKN180,0.00,VWS V14.01,2013-02-12 06:05:00,
2013-02-12 00:10:00,44.6,38.8,30.17,North,355,0.0,0.0,80,0.00,,BKN180,0.00,VWS V14.01,2013-02-12 06:10:00,
2013-02-12 00:15:00,44.3,39.2,30.17,North,355,0.0,0.0,82,0.00,,BKN180,0.00,VWS V14.01,2013-02-12 06:15:00,
2013-02-12 00:20:00,44.2,39.1,30.17,North,355,0.0,0.0,82,0.00,,BKN180,0.00,VWS V14.01,2013-02-12 06:20:00,
2013-02-12 00:25:00,44.2,39.4,30.18,North,355,0.0,0.0,83,0.00,,BKN180,0.00,VWS V14.01,2013-02-12 06:25:00,
2013-02-12 00:30:00,44.0,39.2,30.17,North,355,0.0,0.0,83,0.00,,BKN180,0.00,VWS V14.01,2013-02-12 06:30:00,
2013-02-12 00:35:00,44.0,39.2,30.17,North,355,0.0,0.0,83,0.00,,BKN180,0.00,VWS V14.01,2013-02-12 06:35:00,
2013-02-12 00:40:00,43.8,39.3,30.17,North,355,0.0,0.0,84,0.00,,BKN180,0.00,VWS V14.01,2013-02-12 06:40:00,
2013-02-12 00:45:00,43.7,39.2,30.17,North,355,0.0,0.0,84,0.00,,BKN180,0.00,VWS V14.01,2013-02-12 06:45:00,
2013-02-12 00:50:00,43.4,38.9,30.17,North,355,0.0,0.0,84,0.00,,BKN180,0.00,VWS V14.01,2013-02-12 06:50:00,
2013-02-12 00:55:00,43.2,39.0,30.17,North,355,0.0,0.0,85,0.00,,BKN180,0.00,VWS V14.01,2013-02-12 06:55:00,
2013-02-12 01:00:00,43.2,39.0,30.16,North,355,0.0,0.0,85,0.00,,BKN180,0.00,VWS V14.01,2013-02-12 07:00:00,
2013-02-12 01:05:00,42.9,38.7,30.16,North,355,0.0,0.0,85,0.00,,BKN180,0.00,VWS V14.01,2013-02-12 07:05:00,
2013-02-12 01:10:00,42.6,38.4,30.16,North,355,0.0,0.0,85,0.00,,BKN180,0.00,VWS V14.01,2013-02-12 07:10:00,
2013-02-12 01:15:00,42.3,38.4,30.16,North,355,0.0,0.0,86,0.00,,BKN180,0.00,VWS V14.01,2013-02-12 07:15:00,
2013-02-12 01:20:00,42.2,38.0,30.17,North,355,0.0,0.0,85,0.00,,BKN180,0.00,VWS V14.01,2013-02-12 07:20:00,
2013-02-12 01:25:00,42.0,38.1,30.16,North,355,0.0,0.0,86,0.00,,BKN180,0.00,VWS V14.01,2013-02-12 07:25:00,
2013-02-12 01:30:00,41.9,38.3,30.17,North,355,0.0,0.0,87,0.00,,BKN180,0.00,VWS V14.01,2013-02-12 07:30:00,
2013-02-12 01:35:00,42.0,38.7,30.18,WNW,288,0.0,0.0,88,0.00,,BKN180,0.00,VWS V14.01,2013-02-12 07:35:00,
2013-02-12 01:40:00,42.0,38.4,30.18,WNW,288,0.0,0.0,87,0.00,,BKN180,0.00,VWS V14.01,2013-02-12 07:40:00,
2013-02-12 01:45:00,41.9,38.3,30.18,WNW,288,0.0,0.0,87,0.00,,BKN180,0.00,VWS V14.01,2013-02-12 07:45:00,
2013-02-12 01:50:00,41.6,38.0,30.19,WNW,288,0.0,0.0,87,0.00,,BKN180,0.00,VWS V14.01,2013-02-12 07:50:00,
2013-02-12 01:55:00,41.1,37.5,30.19,WNW,288,0.0,0.0,87,0.00,,BKN180,0.00,VWS V14.01,2013-02-12 07:55:00,
2013-02-12 02:00:00,41.1,37.5,30.19,WNW,288,0.0,0.0,87,0.00,,BKN180,0.00,VWS V14.01,2013-02-12 08:00:00,
2013-02-12 02:05:00,41.0,37.4,30.18,WNW,288,0.0,0.0,87,0.00,,BKN180,0.00,VWS V14.01,2013-02-12 08:05:00,
2013-02-12 02:10:00,40.7,37.4,30.18,WNW,288,0.0,0.0,88,0.00,,OVC180,0.00,VWS V14.01,2013-02-12 08:10:00,
2013-02-12 02:15:00,40.7,37.1,30.18,WNW,288,0.0,0.0,87,0.00,,OVC180,0.00,VWS V14.01,2013-02-12 08:15:00,
2013-02-12 02:20:00,40.6,37.3,30.17,WNW,288,0.0,0.0,88,0.00,,OVC180,0.00,VWS V14.01,2013-02-12 08:20:00,
2013-02-12 02:25:00,40.5,37.2,30.17,WNW,288,0.0,0.0,88,0.00,,OVC180,0.00,VWS V14.01,2013-02-12 08:25:00,
2013-02-12 02:30:00,40.4,37.4,30.17,WNW,288,0.0,0.0,89,0.00,,OVC180,0.00,VWS V14.01,2013-02-12 08:30:00,
2013-02-12 02:35:00,40.5,37.5,30.16,WNW,288,0.0,0.0,89,0.00,,OVC180,0.00,VWS V14.01,2013-02-12 08:35:00,
2013-02-12 02:40:00,40.5,37.5,30.16,WNW,288,0.0,0.0,89,0.00,,OVC180,0.00,VWS V14.01,2013-02-12 08:40:00,
2013-02-12 02:45:00,40.4,37.7,30.16,WNW,288,0.0,0.0,90,0.00,,OVC180,0.00,VWS V14.01,2013-02-12 08:45:00,
2013-02-12 02:50:00,40.3,37.6,30.17,WNW,288,0.0,0.0,90,0.00,,OVC180,0.00,VWS V14.01,2013-02-12 08:50:00,
2013-02-12 02:55:00,40.1,37.4,30.17,WNW,288,0.0,0.0,90,0.00,,OVC180,0.00,VWS V14.01,2013-02-12 08:55:00,
2013-02-12 03:00:00,40.0,37.3,30.17,WNW,288,0.0,0.0,90,0.00,,OVC180,0.00,VWS V14.01,2013-02-12 09:00:00,
2013-02-12 03:05:00,40.0,37.6,30.18,WNW,288,0.0,0.0,91,0.00,,CLR,0.00,VWS V14.01,2013-02-12 09:05:00,
2013-02-12 03:10:00,40.0,37.6,30.18,WNW,288,0.0,0.0,91,0.00,,CLR,0.00,VWS V14.01,2013-02-12 09:10:00,
2013-02-12 03:15:00,40.1,37.7,30.17,WNW,288,0.0,0.0,91,0.00,,CLR,0.00,VWS V14.01,2013-02-12 09:15:00,
2013-02-12 03:20:00,40.0,37.6,30.17,WNW,288,0.0,0.0,91,0.00,,CLR,0.00,VWS V14.01,2013-02-12 09:20:00,
2013-02-12 03:25:00,40.0,37.6,30.17,WNW,288,0.0,0.0,91,0.00,,CLR,0.00,VWS V14.01,2013-02-12 09:25:00,
2013-02-12 03:30:00,40.0,37.6,30.17,WNW,288,0.0,0.0,91,0.00,,CLR,0.00,VWS V14.01,2013-02-12 09:30:00,
2013-02-12 03:35:00,40.0,37.3,30.18,WNW,288,0.0,0.0,90,0.00,,CLR,0.00,VWS V14.01,2013-02-12 09:35:00,
2013-02-12 03:40:00,39.6,36.9,30.18,WNW,288,0.0,0.0,90,0.00,,CLR,0.00,VWS V14.01,2013-02-12 09:40:00,
2013-02-12 03:45:00,39.2,36.5,30.17,WNW,288,0.0,0.0,90,0.00,,CLR,0.00,VWS V14.01,2013-02-12 09:45:00,
2013-02-12 03:50:00,39.1,36.4,30.17,WNW,288,0.0,1.0,90,0.00,,CLR,0.00,VWS V14.01,2013-02-12 09:50:00,
2013-02-12 03:55:00,39.1,36.7,30.16,NNW,331,0.0,1.0,91,0.00,,CLR,0.00,VWS V14.01,2013-02-12 09:55:00,
2013-02-12 04:00:00,39.4,37.3,30.16,NNW,331,0.0,0.0,92,0.00,,CLR,0.00,VWS V14.01,2013-02-12 10:00:00,
2013-02-12 04:05:00,39.4,37.3,30.17,NNW,331,0.0,0.0,92,0.00,,CLR,0.00,VWS V14.01,2013-02-12 10:05:00,
2013-02-12 04:10:00,39.3,36.9,30.17,NNW,331,0.0,0.0,91,0.00,,CLR,0.00,VWS V14.01,2013-02-12 10:10:00,
2013-02-12 04:15:00,39.3,37.2,30.17,NNW,331,0.0,0.0,92,0.00,,CLR,0.00,VWS V14.01,2013-02-12 10:15:00,
2013-02-12 04:20:00,39.2,37.1,30.17,NNW,331,0.0,0.0,92,0.00,,CLR,0.00,VWS V14.01,2013-02-12 10:20:00,
2013-02-12 04:25:00,38.9,36.5,30.16,NNW,331,0.0,0.0,91,0.00,,CLR,0.00,VWS V14.01,2013-02-12 10:25:00,
2013-02-12 04:30:00,38.6,36.2,30.16,NNW,331,0.0,0.0,91,0.00,,CLR,0.00,VWS V14.01,2013-02-12 10:30:00,
2013-02-12 04:35:00,38.2,35.8,30.15,NNW,331,0.0,1.0,91,0.00,,CLR,0.00,VWS V14.01,2013-02-12 10:35:00,
2013-02-12 04:40:00,38.0,35.9,30.14,NNW,331,0.0,0.0,92,0.00,,CLR,0.00,VWS V14.01,2013-02-12 10:40:00,
2013-02-12 04:45:00,37.9,35.8,30.14,NNW,331,0.0,0.0,92,0.00,,CLR,0.00,VWS V14.01,2013-02-12 10:45:00,
2013-02-12 04:50:00,37.6,35.5,30.14,NNW,331,0.0,0.0,92,0.00,,CLR,0.00,VWS V14.01,2013-02-12 10:50:00,
2013-02-12 04:55:00,37.3,35.5,30.14,NNW,331,0.0,0.0,93,0.00,,CLR,0.00,VWS V14.01,2013-02-12 10:55:00,
2013-02-12 05:00:00,37.3,35.5,30.13,NNW,331,0.0,0.0,93,0.00,,CLR,0.00,VWS V14.01,2013-02-12 11:00:00,
2013-02-12 05:05:00,37.2,35.4,30.13,NNW,331,0.0,0.0,93,0.00,,CLR,0.00,VWS V14.01,2013-02-12 11:05:00,
2013-02-12 05:10:00,37.1,35.3,30.13,NNW,331,0.0,0.0,93,0.00,,CLR,0.00,VWS V14.01,2013-02-12 11:10:00,
2013-02-12 05:15:00,37.1,35.3,30.13,NNW,331,0.0,0.0,93,0.00,,CLR,0.00,VWS V14.01,2013-02-12 11:15:00,
2013-02-12 05:20:00,36.5,34.7,30.12,NNW,331,0.0,0.0,93,0.00,,CLR,0.00,VWS V14.01,2013-02-12 11:20:00,
2013-02-12 05:25:00,36.3,34.5,30.12,NNW,331,0.0,0.0,93,0.00,,CLR,0.00,VWS V14.01,2013-02-12 11:25:00,
2013-02-12 05:30:00,36.3,34.5,30.11,NNW,331,0.0,0.0,93,0.00,,CLR,0.00,VWS V14.01,2013-02-12 11:30:00,
2013-02-12 05:35:00,36.2,34.4,30.11,ESE,117,0.0,1.0,93,0.00,,CLR,0.00,VWS V14.01,2013-02-12 11:35:00,
2013-02-12 05:40:00,36.6,35.0,30.11,ESE,113,0.0,0.0,94,0.00,,CLR,0.00,VWS V14.01,2013-02-12 11:40:00,
2013-02-12 05:45:00,36.7,35.1,30.11,ESE,117,0.0,1.0,94,0.00,,CLR,0.00,VWS V14.01,2013-02-12 11:45:00,
2013-02-12 05:50:00,36.9,35.3,30.11,SE,143,0.0,1.0,94,0.00,,CLR,0.00,VWS V14.01,2013-02-12 11:50:00,
2013-02-12 05:55:00,36.7,35.1,30.11,SE,134,0.0,1.0,94,0.00,,CLR,0.00,VWS V14.01,2013-02-12 11:55:00,
2013-02-12 06:00:00,36.6,35.0,30.10,SE,134,0.0,0.0,94,0.00,,CLR,0.00,VWS V14.01,2013-02-12 12:00:00,
2013-02-12 06:05:00,36.7,35.1,30.10,SE,134,0.0,0.0,94,0.00,,SCT250,0.00,VWS V14.01,2013-02-12 12:05:00,
2013-02-12 06:10:00,36.7,35.1,30.09,SE,124,1.0,1.0,94,0.00,,SCT250,0.00,VWS V14.01,2013-02-12 12:10:00,
2013-02-12 06:15:00,36.7,35.1,30.09,SE,134,1.0,4.0,94,0.00,,SCT250,0.00,VWS V14.01,2013-02-12 12:15:00,
2013-02-12 06:20:00,36.8,35.2,30.08,ESE,104,2.0,2.0,94,0.00,,SCT250,0.00,VWS V14.01,2013-02-12 12:20:00,
2013-02-12 06:25:00,37.0,35.4,30.08,ESE,121,0.0,2.0,94,0.00,,SCT250,0.00,VWS V14.01,2013-02-12 12:25:00,
2013-02-12 06:30:00,37.2,35.6,30.09,ESE,106,0.0,2.0,94,0.00,,SCT250,0.00,VWS V14.01,2013-02-12 12:30:00,
2013-02-12 06:35:00,37.4,35.6,30.10,ESE,109,0.0,1.0,93,0.00,,SCT250,0.00,VWS V14.01,2013-02-12 12:35:00,
2013-02-12 06:40:00,37.7,35.6,30.10,ESE,123,0.0,1.0,92,0.00,,SCT250,0.00,VWS V14.01,2013-02-12 12:40:00,
2013-02-12 06:45:00,37.5,35.4,30.10,ESE,123,0.0,0.0,92,0.00,,SCT250,0.00,VWS V14.01,2013-02-12 12:45:00,
2013-02-12 06:50:00,37.4,35.0,30.11,ESE,123,0.0,0.0,91,0.00,,SCT250,0.00,VWS V14.01,2013-02-12 12:50:00,
2013-02-12 06:55:00,37.2,34.8,30.13,ESE,123,0.0,0.0,91,0.00,,SCT250,0.00,VWS V14.01,2013-02-12 12:55:00,
2013-02-12 07:00:00,36.9,34.5,30.14,ESE,123,0.0,0.0,91,0.00,,SCT250,0.00,VWS V14.01,2013-02-12 13:00:00,
2013-02-12 07:05:00,36.4,34.0,30.14,ESE,123,0.0,0.0,91,0.00,,SCT250,0.00,VWS V14.01,2013-02-12 13:05:00,
2013-02-12 07:10:00,36.2,33.8,30.14,ESE,123,0.0,0.0,91,0.00,,SCT250,0.00,VWS V14.01,2013-02-12 13:10:00,
2013-02-12 07:15:00,36.1,34.0,30.14,ESE,123,0.0,0.0,92,0.00,,SCT250,0.00,VWS V14.01,2013-02-12 13:15:00,
2013-02-12 07:20:00,36.4,34.6,30.14,ESE,123,0.0,0.0,93,0.00,,SCT250,0.00,VWS V14.01,2013-02-12 13:20:00,
2013-02-12 07:25:00,36.8,35.0,30.14,ESE,123,0.0,0.0,93,0.00,,SCT250,0.00,VWS V14.01,2013-02-12 13:25:00,
2013-02-12 07:30:00,37.4,35.3,30.13,ESE,123,0.0,0.0,92,0.00,,SCT250,0.00,VWS V14.01,2013-02-12 13:30:00,
2013-02-12 07:35:00,38.0,35.9,30.13,ESE,123,0.0,0.0,92,0.00,,SCT250,0.00,VWS V14.01,2013-02-12 13:35:00,
2013-02-12 07:40:00,38.6,36.5,30.13,ESE,123,0.0,0.0,92,0.00,,SCT250,0.00,VWS V14.01,2013-02-12 13:40:00,
2013-02-12 07:45:00,39.7,37.3,30.13,ESE,123,0.0,0.0,91,0.00,,SCT250,0.00,VWS V14.01,2013-02-12 13:45:00,
2013-02-12 07:50:00,40.5,37.8,30.13,ESE,123,0.0,0.0,90,0.00,,SCT250,0.00,VWS V14.01,2013-02-12 13:50:00,
2013-02-12 07:55:00,41.7,39.0,30.13,ESE,109,0.0,1.0,90,0.00,,SCT250,0.00,VWS V14.01,2013-02-12 13:55:00,
2013-02-12 08:00:00,42.5,39.2,30.13,ENE,63,0.0,1.0,88,0.00,,SCT250,0.00,VWS V14.01,2013-02-12 14:00:00,
2013-02-12 08:05:00,43.0,39.4,30.12,NE,42,2.0,2.0,87,0.00,,BKN250,0.00,VWS V14.01,2013-02-12 14:05:00,
2013-02-12 08:10:00,43.3,39.7,30.12,NNE,31,0.0,2.0,87,0.00,,BKN250,0.00,VWS V14.01,2013-02-12 14:10:00,
2013-02-12 08:15:00,44.0,40.1,30.13,NNE,33,0.0,2.0,86,0.00,,BKN250,0.00,VWS V14.01,2013-02-12 14:15:00,
2013-02-12 08:20:00,44.5,40.0,30.13,North,360,0.0,3.0,84,0.00,,BKN250,0.00,VWS V14.01,2013-02-12 14:20:00,
2013-02-12 08:25:00,45.3,41.1,30.13,NNE,13,1.0,4.0,85,0.00,,BKN250,0.00,VWS V14.01,2013-02-12 14:25:00,
2013-02-12 08:30:00,46.2,41.3,30.12,NE,34,2.0,3.0,83,0.00,,BKN250,0.00,VWS V14.01,2013-02-12 14:30:00,
2013-02-12 08:35:00,46.9,40.4,30.11,North,5,3.0,5.0,78,0.00,,BKN250,0.00,VWS V14.01,2013-02-12 14:35:00,
2013-02-12 08:40:00,47.0,39.2,30.10,NE,36,2.0,9.0,74,0.00,,BKN250,0.00,VWS V14.01,2013-02-12 14:40:00,
2013-02-12 08:45:00,47.3,39.8,30.10,NNW,336,1.0,6.0,75,0.00,,BKN250,0.00,VWS V14.01,2013-02-12 14:45:00,
2013-02-12 08:50:00,47.6,40.1,30.10,NNE,16,2.0,5.0,75,0.00,,BKN250,0.00,VWS V14.01,2013-02-12 14:50:00,
2013-02-12 08:55:00,48.1,40.2,30.10,NNE,25,1.0,5.0,74,0.00,,BKN250,0.00,VWS V14.01,2013-02-12 14:55:00,
2013-02-12 09:00:00,49.1,40.5,30.09,NE,34,5.0,7.0,72,0.00,,BKN250,0.00,VWS V14.01,2013-02-12 15:00:00,
2013-02-12 09:05:00,49.6,39.5,30.08,NW,325,3.0,5.0,68,0.00,,BKN250,0.00,VWS V14.01,2013-02-12 15:05:00,
2013-02-12 09:10:00,51.1,39.4,30.07,NNE,27,0.0,9.0,64,0.00,,BKN250,0.00,VWS V14.01,2013-02-12 15:10:00,
2013-02-12 09:15:00,50.8,38.3,30.06,East,80,1.0,7.0,62,0.00,,BKN250,0.00,VWS V14.01,2013-02-12 15:15:00,
2013-02-12 09:20:00,50.3,37.8,30.05,NNE,31,11.0,11.0,62,0.00,,BKN250,0.00,VWS V14.01,2013-02-12 15:20:00,
2013-02-12 09:25:00,50.2,37.7,30.05,NE,49,4.0,5.0,62,0.00,,BKN250,0.00,VWS V14.01,2013-02-12 15:25:00,
2013-02-12 09:30:00,50.4,37.5,30.06,NE,38,4.0,8.0,61,0.00,,BKN250,0.00,VWS V14.01,2013-02-12 15:30:00,
2013-02-12 09:35:00,50.4,37.5,30.07,East,99,0.0,8.0,61,0.00,,BKN250,0.00,VWS V14.01,2013-02-12 15:35:00,
2013-02-12 09:40:00,50.6,37.7,30.08,South,179,3.0,7.0,61,0.00,,BKN250,0.00,VWS V14.01,2013-02-12 15:40:00,
2013-02-12 09:45:00,50.5,37.6,30.10,SSE,148,5.0,9.0,61,0.00,,BKN250,0.00,VWS V14.01,2013-02-12 15:45:00,
2013-02-12 09:50:00,50.5,37.6,30.10,SE,124,1.0,5.0,61,0.00,,BKN250,0.00,VWS V14.01,2013-02-12 15:50:00,
2013-02-12 09:55:00,50.5,37.6,30.11,ENE,59,1.0,5.0,61,0.00,,BKN250,0.00,VWS V14.01,2013-02-12 15:55:00,
2013-02-12 10:00:00,50.5,37.2,30.10,SE,128,0.0,3.0,60,0.00,,BKN250,0.00,VWS V14.01,2013-02-12 16:00:00,
2013-02-12 10:05:00,50.6,37.7,30.10,ENE,57,0.0,4.0,61,0.00,,BKN250,0.00,VWS V14.01,2013-02-12 16:05:00,
2013-02-12 10:10:00,50.7,36.9,30.10,ENE,74,2.0,4.0,59,0.00,,BKN250,0.00,VWS V14.01,2013-02-12 16:10:00,
2013-02-12 10:15:00,50.9,37.1,30.11,NNE,27,3.0,5.0,59,0.00,,BKN250,0.00,VWS V14.01,2013-02-12 16:15:00,
2013-02-12 10:20:00,50.9,36.7,30.11,SE,132,0.0,4.0,58,0.00,,BKN250,0.00,VWS V14.01,2013-02-12 16:20:00,
2013-02-12 10:25:00,50.8,36.6,30.11,SE,144,1.0,5.0,58,0.00,,BKN250,0.00,VWS V14.01,2013-02-12 16:25:00,
2013-02-12 10:30:00,50.9,36.7,30.10,East,101,2.0,4.0,58,0.00,,BKN250,0.00,VWS V14.01,2013-02-12 16:30:00,
2013-02-12 10:35:00,50.8,36.6,30.09,East,82,0.0,5.0,58,0.00,,BKN250,0.00,VWS V14.01,2013-02-12 16:35:00,
2013-02-12 10:40:00,50.8,37.0,30.09,ESE,114,3.0,6.0,59,0.00,,BKN250,0.00,VWS V14.01,2013-02-12 16:40:00,
2013-02-12 10:45:00,50.8,37.0,30.08,ENE,77,1.0,5.0,59,0.00,,BKN250,0.00,VWS V14.01,2013-02-12 16:45:00,
2013-02-12 10:50:00,50.8,36.6,30.08,NNW,338,0.0,5.0,58,0.00,,BKN250,0.00,VWS V14.01,2013-02-12 16:50:00,
2013-02-12 10:55:00,50.9,36.7,30.08,ENE,63,1.0,3.0,58,0.00,,BKN250,0.00,VWS V14.01,2013-02-12 16:55:00,
2013-02-12 11:00:00,50.9,36.2,30.10,East,86,3.0,7.0,57,0.00,,BKN250,0.00,VWS V14.01,2013-02-12 17:00:00,
2013-02-12 11:05:00,51.0,36.3,30.10,SSE,155,1.0,3.0,57,0.00,,OVC150,0.00,VWS V14.01,2013-02-12 17:05:00,
2013-02-12 11:11:00,51.0,36.3,30.10,North,360,1.0,7.0,57,0.00,,OVC150,0.00,VWS V14.01,2013-02-12 17:11:00,
2013-02-12 11:16:00,51.0,35.9,30.09,NE,34,0.0,2.0,56,0.00,,OVC150,0.00,VWS V14.01,2013-02-12 17:16:00,
2013-02-12 11:21:00,51.0,36.3,30.07,ESE,110,2.0,4.0,57,0.00,,OVC150,0.00,VWS V14.01,2013-02-12 17:21:00,
2013-02-12 11:26:00,51.1,35.5,30.07,SE,126,0.0,7.0,55,0.00,,OVC150,0.00,VWS V14.01,2013-02-12 17:26:00,
2013-02-12 11:31:00,51.1,35.5,30.08,ESE,115,0.0,3.0,55,0.00,,OVC150,0.00,VWS V14.01,2013-02-12 17:31:00,
2013-02-12 11:36:00,51.2,35.6,30.10,East,85,1.0,4.0,55,0.00,,OVC150,0.00,VWS V14.01,2013-02-12 17:36:00,
2013-02-12 11:41:00,51.2,35.6,30.11,ESE,120,2.0,4.0,55,0.00,,OVC150,0.00,VWS V14.01,2013-02-12 17:41:00,
2013-02-12 11:46:00,51.2,35.6,30.10,SSE,157,0.0,4.0,55,0.00,,OVC150,0.00,VWS V14.01,2013-02-12 17:46:00,
2013-02-12 11:51:00,51.1,35.5,30.10,ESE,102,0.0,6.0,55,0.00,,OVC150,0.00,VWS V14.01,2013-02-12 17:51:00,
2013-02-12 11:56:00,51.1,36.0,30.11,South,184,1.0,5.0,56,0.00,,OVC150,0.00,VWS V14.01,2013-02-12 17:56:00,
2013-02-12 12:01:00,51.2,36.1,30.11,ESE,123,0.0,5.0,56,0.00,,OVC150,0.00,VWS V14.01,2013-02-12 18:01:00,
2013-02-12 12:06:00,51.4,35.8,30.10,ESE,115,0.0,3.0,55,0.00,,OVC090,0.00,VWS V14.01,2013-02-12 18:06:00,
2013-02-12 12:11:00,51.5,36.3,30.09,NE,52,0.0,2.0,56,0.00,,OVC090,0.00,VWS V14.01,2013-02-12 18:11:00,
2013-02-12 12:16:00,51.6,36.0,30.09,NNE,31,0.0,3.0,55,0.00,,OVC090,0.00,VWS V14.01,2013-02-12 18:16:00,
2013-02-12 12:21:00,51.5,35.9,30.08,East,94,0.0,2.0,55,0.00,,OVC090,0.00,VWS V14.01,2013-02-12 18:21:00,
2013-02-12 12:26:00,51.5,36.3,30.08,North,355,1.0,2.0,56,0.00,,OVC090,0.00,VWS V14.01,2013-02-12 18:26:00,
2013-02-12 12:31:00,51.7,36.5,30.07,ENE,62,1.0,2.0,56,0.00,,OVC090,0.00,VWS V14.01,2013-02-12 18:31:00,
2013-02-12 12:36:00,51.8,36.6,30.05,NNE,26,1.0,4.0,56,0.00,,OVC090,0.00,VWS V14.01,2013-02-12 18:36:00,
2013-02-12 12:41:00,51.7,37.0,30.04,NE,41,0.0,5.0,57,0.00,,OVC090,0.00,VWS V14.01,2013-02-12 18:41:00,
2013-02-12 12:46:00,51.5,38.1,30.05,NNE,32,3.0,4.0,60,0.00,,OVC090,0.00,VWS V14.01,2013-02-12 18:46:00,
2013-02-12 12:51:00,51.1,38.5,30.06,North,351,2.0,3.0,62,0.01,,OVC090,0.01,VWS V14.01,2013-02-12 18:51:00,
2013-02-12 12:56:00,50.6,39.7,30.06,North,5,2.0,2.0,66,0.01,,OVC090,0.01,VWS V14.01,2013-02-12 18:56:00,
2013-02-12 13:01:00,50.1,39.6,30.05,NNW,342,1.0,4.0,67,0.01,,OVC090,0.01,VWS V14.01,2013-02-12 19:01:00,
2013-02-12 13:06:00,49.8,39.3,30.05,ENE,69,0.0,4.0,67,0.01,,OVC150,0.01,VWS V14.01,2013-02-12 19:06:00,
2013-02-12 13:11:00,49.7,40.0,30.04,NE,50,2.0,3.0,69,0.01,,OVC150,0.01,VWS V14.01,2013-02-12 19:11:00,
2013-02-12 13:16:00,49.7,40.3,30.04,NNW,338,1.0,4.0,70,0.01,,OVC150,0.01,VWS V14.01,2013-02-12 19:16:00,
2013-02-12 13:21:00,49.9,41.6,30.04,NNW,347,1.0,5.0,73,0.01,,OVC150,0.01,VWS V14.01,2013-02-12 19:21:00,
2013-02-12 13:25:00,49.8,40.8,30.04,NNW,327,0.0,2.0,71,0.01,,OVC150,0.01,VWS V14.01,2013-02-12 19:25:00,
2013-02-12 13:30:00,49.7,39.2,30.04,NE,47,0.0,3.0,67,0.01,,OVC150,0.01,VWS V14.01,2013-02-12 19:30:00,
2013-02-12 13:35:00,49.7,39.2,30.03,NNE,16,0.0,1.0,67,0.01,,OVC150,0.01,VWS V14.01,2013-02-12 19:35:00,
2013-02-12 13:40:00,49.8,39.7,30.04,ENE,61,0.0,1.0,68,0.01,,OVC150,0.01,VWS V14.01,2013-02-12 19:40:00,
2013-02-12 13:45:00,49.9,39.4,30.03,NE,38,0.0,2.0,67,0.01,,OVC150,0.01,VWS V14.01,2013-02-12 19:45:00,
2013-02-12 13:50:00,50.0,40.2,30.01,East,92,0.0,2.0,69,0.01,,OVC150,0.01,VWS V14.01,2013-02-12 19:50:00,
2013-02-12 13:55:00,50.2,39.7,30.03,East,90,0.0,2.0,67,0.00,,OVC150,0.01,VWS V14.01,2013-02-12 19:55:00,
2013-02-12 14:00:00,50.3,39.0,30.00,ESE,108,3.0,3.0,65,0.00,,OVC150,0.01,VWS V14.01,2013-02-12 20:00:00,
2013-02-12 14:05:00,50.3,39.4,29.99,ESE,119,1.0,2.0,66,0.00,,OVC150,0.01,VWS V14.01,2013-02-12 20:05:00,
2013-02-12 14:10:00,50.4,39.1,29.99,SE,139,0.0,2.0,65,0.00,,OVC150,0.01,VWS V14.01,2013-02-12 20:10:00,
2013-02-12 14:15:00,50.5,39.2,29.97,NNE,26,0.0,4.0,65,0.00,,OVC150,0.01,VWS V14.01,2013-02-12 20:15:00,
2013-02-12 14:20:00,50.7,39.8,29.97,NNE,30,1.0,4.0,66,0.00,,OVC150,0.01,VWS V14.01,2013-02-12 20:20:00,
2013-02-12 14:25:00,50.8,39.1,29.97,ESE,115,2.0,4.0,64,0.00,,OVC150,0.01,VWS V14.01,2013-02-12 20:25:00,
2013-02-12 14:30:00,51.0,38.9,29.98,East,88,0.0,6.0,63,0.00,,OVC150,0.01,VWS V14.01,2013-02-12 20:30:00,
2013-02-12 14:35:00,51.0,38.9,29.98,ESE,121,3.0,3.0,63,0.00,,OVC150,0.01,VWS V14.01,2013-02-12 20:35:00,
2013-02-12 14:40:00,51.0,38.9,29.98,NNE,28,1.0,4.0,63,0.00,,OVC150,0.01,VWS V14.01,2013-02-12 20:40:00,
2013-02-12 14:45:00,51.0,38.5,29.97,SE,142,4.0,4.0,62,0.00,,OVC150,0.01,VWS V14.01,2013-02-12 20:45:00,
2013-02-12 14:50:00,51.0,37.6,29.98,ESE,108,0.0,7.0,60,0.00,,OVC150,0.01,VWS V14.01,2013-02-12 20:50:00,
2013-02-12 14:55:00,51.0,37.6,29.97,ESE,119,2.0,6.0,60,0.00,,OVC150,0.01,VWS V14.01,2013-02-12 20:55:00,
2013-02-12 15:00:00,51.1,37.7,29.97,ESE,107,1.0,6.0,60,0.00,,OVC150,0.01,VWS V14.01,2013-02-12 21:00:00,
2013-02-12 15:05:00,51.1,37.3,29.97,NE,49,0.0,2.0,59,0.00,,OVC070,0.01,VWS V14.01,2013-02-12 21:05:00,
2013-02-12 15:10:00,51.2,37.0,29.96,SE,132,3.0,5.0,58,0.00,,OVC070,0.01,VWS V14.01,2013-02-12 21:10:00,
2013-02-12 15:15:00,51.2,37.0,29.95,ESE,122,5.0,7.0,58,0.00,,OVC070,0.01,VWS V14.01,2013-02-12 21:15:00,
2013-02-12 15:20:00,51.3,36.6,29.95,ESE,108,1.0,5.0,57,0.00,,OVC070,0.01,VWS V14.01,2013-02-12 21:20:00,
2013-02-12 15:25:00,51.2,37.0,29.94,NNE,29,0.0,8.0,58,0.00,,OVC070,0.01,VWS V14.01,2013-02-12 21:25:00,
2013-02-12 15:30:00,51.1,36.8,29.93,ENE,63,3.0,8.0,58,0.00,,OVC070,0.01,VWS V14.01,2013-02-12 21:30:00,
2013-02-12 15:35:00,51.0,37.2,29.94,ENE,78,0.0,2.0,59,0.00,,OVC070,0.01,VWS V14.01,2013-02-12 21:35:00,
2013-02-12 15:40:00,50.9,36.7,29.93,ESE,123,3.0,5.0,58,0.00,,OVC070,0.01,VWS V14.01,2013-02-12 21:40:00,
2013-02-12 15:45:00,51.0,37.2,29.93,NNE,19,2.0,9.0,59,0.00,,OVC070,0.01,VWS V14.01,2013-02-12 21:45:00,
2013-02-12 15:50:00,51.1,37.3,29.93,SE,126,0.0,10.0,59,0.00,,OVC070,0.01,VWS V14.01,2013-02-12 21:50:00,
2013-02-12 15:55:00,51.0,37.2,29.93,ENE,75,2.0,7.0,59,0.00,,OVC070,0.01,VWS V14.01,2013-02-12 21:55:00,
2013-02-12 16:00:00,51.1,37.7,29.91,NE,44,0.0,6.0,60,0.00,,OVC070,0.01,VWS V14.01,2013-02-12 22:00:00,
2013-02-12 16:05:00,51.2,38.2,29.92,ESE,116,0.0,6.0,61,0.00,,OVC070,0.01,VWS V14.01,2013-02-12 22:05:00,
2013-02-12 16:10:00,51.1,37.7,29.92,East,83,2.0,5.0,60,0.00,,OVC070,0.01,VWS V14.01,2013-02-12 22:10:00,
2013-02-12 16:15:00,51.1,37.7,29.91,ESE,117,0.0,5.0,60,0.00,,OVC070,0.01,VWS V14.01,2013-02-12 22:15:00,
2013-02-12 16:20:00,51.1,37.3,29.91,East,79,0.0,4.0,59,0.00,,OVC070,0.01,VWS V14.01,2013-02-12 22:20:00,
2013-02-12 16:25:00,51.1,37.7,29.91,ENE,58,0.0,5.0,60,0.00,,OVC070,0.01,VWS V14.01,2013-02-12 22:25:00,
2013-02-12 16:30:00,51.1,37.7,29.90,ESE,103,3.0,5.0,60,0.00,,OVC070,0.01,VWS V14.01,2013-02-12 22:30:00,
2013-02-12 16:35:00,51.1,37.3,29.90,East,79,2.0,8.0,59,0.00,,OVC070,0.01,VWS V14.01,2013-02-12 22:35:00,
2013-02-12 16:40:00,51.1,37.3,29.90,ENE,62,2.0,5.0,59,0.00,,OVC070,0.01,VWS V14.01,2013-02-12 22:40:00,
2013-02-12 16:45:00,51.0,37.2,29.92,East,96,1.0,4.0,59,0.00,,OVC070,0.01,VWS V14.01,2013-02-12 22:45:00,
2013-02-12 16:50:00,51.0,37.2,29.92,ESE,123,1.0,3.0,59,0.00,,OVC070,0.01,VWS V14.01,2013-02-12 22:50:00,
2013-02-12 16:55:00,51.0,37.2,29.92,ESE,110,1.0,3.0,59,0.00,,OVC070,0.01,VWS V14.01,2013-02-12 22:55:00,
2013-02-12 17:00:00,50.9,38.0,29.93,SE,137,0.0,3.0,61,0.00,,OVC070,0.01,VWS V14.01,2013-02-12 23:00:00,
2013-02-12 17:05:00,50.7,37.8,29.94,ENE,70,0.0,1.0,61,0.00,,OVC120,0.01,VWS V14.01,2013-02-12 23:05:00,
2013-02-12 17:10:00,50.4,38.3,29.94,North,355,2.0,5.0,63,0.00,,OVC120,0.01,VWS V14.01,2013-02-12 23:10:00,
2013-02-12 17:15:00,50.1,38.4,29.95,NNE,17,0.0,1.0,64,0.00,,OVC120,0.01,VWS V14.01,2013-02-12 23:15:00,
2013-02-12 17:20:00,49.9,38.6,29.95,North,350,0.0,2.0,65,0.00,,OVC120,0.01,VWS V14.01,2013-02-12 23:20:00,
2013-02-12 17:25:00,49.7,38.4,29.95,NNE,30,0.0,4.0,65,0.00,,OVC120,0.01,VWS V14.01,2013-02-12 23:25:00,
2013-02-12 17:30:00,49.6,38.7,29.95,NNE,33,1.0,1.0,66,0.00,,OVC120,0.01,VWS V14.01,2013-02-12 23:30:00,
2013-02-12 17:35:00,49.2,39.5,29.94,NE,36,0.0,1.0,69,0.00,,OVC120,0.01,VWS V14.01,2013-02-12 23:35:00,
2013-02-12 17:40:00,48.9,39.6,29.94,East,101,0.0,2.0,70,0.00,,OVC120,0.01,VWS V14.01,2013-02-12 23:40:00,
2013-02-12 17:45:00,48.5,39.9,29.94,NE,55,2.0,2.0,72,0.00,,OVC120,0.01,VWS V14.01,2013-02-12 23:45:00,
2013-02-12 17:50:00,48.2,40.3,29.93,East,94,0.0,4.0,74,0.00,,OVC120,0.01,VWS V14.01,2013-02-12 23:50:00,
2013-02-12 17:55:00,48.0,40.5,29.93,NE,43,1.0,3.0,75,0.00,,OVC120,0.01,VWS V14.01,2013-02-12 23:55:00,
2013-02-12 18:00:00,47.9,40.4,29.93,East,95,0.0,2.0,75,0.00,,OVC120,0.01,VWS V14.01,2013-02-13 00:00:00,
2013-02-12 18:05:00,47.8,40.6,29.93,NNE,31,4.0,4.0,76,0.00,,,0.01,VWS V14.01,2013-02-13 00:05:00,
2013-02-12 18:10:00,47.8,40.6,29.93,SE,129,0.0,2.0,76,0.00,,,0.01,VWS V14.01,2013-02-13 00:10:00,
2013-02-12 18:15:00,47.8,41.0,29.93,ESE,122,1.0,2.0,77,0.00,,,0.01,VWS V14.01,2013-02-13 00:15:00,
2013-02-12 18:20:00,47.7,40.8,29.93,ESE,102,2.0,2.0,77,0.00,,,0.01,VWS V14.01,2013-02-13 00:20:00,
2013-02-12 18:25:00,47.7,40.5,29.92,ESE,105,0.0,1.0,76,0.00,,,0.01,VWS V14.01,2013-02-13 00:25:00,
2013-02-12 18:30:00,47.8,40.6,29.92,NE,45,0.0,5.0,76,0.00,,,0.01,VWS V14.01,2013-02-13 00:30:00,
2013-02-12 18:35:00,47.8,40.6,29.92,East,92,0.0,5.0,76,0.00,,,0.01,VWS V14.01,2013-02-13 00:35:00,
2013-02-12 18:40:00,47.9,40.7,29.92,SE,131,0.0,2.0,76,0.00,,,0.01,VWS V14.01,2013-02-13 00:40:00,
2013-02-12 18:45:00,47.9,40.4,29.92,NE,39,1.0,2.0,75,0.00,,,0.01,VWS V14.01,2013-02-13 00:45:00,
2013-02-12 18:50:00,47.9,40.7,29.91,East,101,0.0,3.0,76,0.00,,,0.01,VWS V14.01,2013-02-13 00:50:00,
2013-02-12 18:55:00,47.9,40.7,29.91,ENE,78,1.0,2.0,76,0.00,,,0.01,VWS V14.01,2013-02-13 00:55:00,
2013-02-12 19:00:00,47.8,40.6,29.91,ESE,120,0.0,3.0,76,0.00,,,0.01,VWS V14.01,2013-02-13 01:00:00,
2013-02-12 19:05:00,47.9,40.0,29.90,NNE,28,1.0,3.0,74,0.00,,,0.01,VWS V14.01,2013-02-13 01:05:00,
2013-02-12 19:10:00,47.9,39.7,29.90,SE,142,2.0,4.0,73,0.00,,,0.01,VWS V14.01,2013-02-13 01:10:00,
2013-02-12 19:15:00,47.9,39.3,29.90,ENE,66,0.0,11.0,72,0.00,,,0.01,VWS V14.01,2013-02-13 01:15:00,
2013-02-12 19:20:00,48.0,39.1,29.90,ESE,122,0.0,5.0,71,0.00,,,0.01,VWS V14.01,2013-02-13 01:20:00,
2013-02-12 19:25:00,48.1,39.2,29.89,NNE,25,0.0,6.0,71,0.00,,,0.01,VWS V14.01,2013-02-13 01:25:00,
2013-02-12 19:30:00,48.1,38.8,29.88,East,80,3.0,7.0,70,0.00,,,0.01,VWS V14.01,2013-02-13 01:30:00,
2013-02-12 19:35:00,48.1,38.8,29.88,NE,43,2.0,5.0,70,0.00,,,0.01,VWS V14.01,2013-02-13 01:35:00,
2013-02-12 19:40:00,48.1,38.8,29.89,NE,46,0.0,5.0,70,0.00,,,0.01,VWS V14.01,2013-02-13 01:40:00,
2013-02-12 19:45:00,48.1,38.4,29.88,SE,126,4.0,7.0,69,0.00,,,0.01,VWS V14.01,2013-02-13 01:45:00,
2013-02-12 19:50:00,48.2,38.5,29.87,ESE,118,7.0,8.0,69,0.00,,,0.01,VWS V14.01,2013-02-13 01:50:00,
2013-02-12 19:55:00,48.1,38.8,29.88,NNE,19,0.0,5.0,70,0.00,,,0.01,VWS V14.01,2013-02-13 01:55:00,
2013-02-12 20:00:00,48.1,38.4,29.88,NNE,14,0.0,2.0,69,0.00,,,0.01,VWS V14.01,2013-02-13 02:00:00,
2013-02-12 20:05:00,48.1,38.8,29.86,ESE,116,2.0,5.0,70,0.00,,,0.01,VWS V14.01,2013-02-13 02:05:00,
2013-02-12 20:10:00,48.1,38.8,29.85,SE,141,3.0,8.0,70,0.00,,,0.01,VWS V14.01,2013-02-13 02:10:00,
2013-02-12 20:15:00,48.1,39.2,29.86,NE,50,0.0,10.0,71,0.00,,,0.01,VWS V14.01,2013-02-13 02:15:00,
2013-02-12 20:20:00,48.1,39.2,29.86,NE,34,2.0,5.0,71,0.00,,,0.01,VWS V14.01,2013-02-13 02:20:00,
2013-02-12 20:25:00,48.0,39.1,29.86,ESE,117,1.0,3.0,71,0.00,,,0.01,VWS V14.01,2013-02-13 02:25:00,
2013-02-12 20:30:00,48.0,39.1,29.85,ESE,121,1.0,10.0,71,0.00,,,0.01,VWS V14.01,2013-02-13 02:30:00,
2013-02-12 20:35:00,48.0,39.4,29.84,SW,223,4.0,16.0,72,0.00,,,0.01,VWS V14.01,2013-02-13 02:35:00,
2013-02-12 20:40:00,48.0,39.4,29.84,ESE,116,5.0,8.0,72,0.00,,,0.01,VWS V14.01,2013-02-13 02:40:00,
2013-02-12 20:45:00,47.9,39.3,29.84,NE,39,2.0,8.0,72,0.00,,,0.01,VWS V14.01,2013-02-13 02:45:00,
2013-02-12 20:50:00,47.9,39.7,29.83,East,100,7.0,10.0,73,0.00,,,0.01,VWS V14.01,2013-02-13 02:50:00,
2013-02-12 20:55:00,47.9,39.7,29.84,ESE,105,3.0,6.0,73,0.00,,,0.01,VWS V14.01,2013-02-13 02:55:00,
2013-02-12 21:00:00,47.8,39.6,29.84,SSE,148,4.0,7.0,73,0.00,,,0.01,VWS V14.01,2013-02-13 03:00:00,
2013-02-12 21:05:00,47.8,39.6,29.84,ESE,111,4.0,8.0,73,0.00,,OVC050,0.01,VWS V14.01,2013-02-13 03:05:00,
2013-02-12 21:10:00,47.7,39.5,29.84,NNE,29,10.0,10.0,73,0.00,,OVC050,0.01,VWS V14.01,2013-02-13 03:10:00,
2013-02-12 21:15:00,47.7,39.8,29.84,ESE,123,1.0,8.0,74,0.00,,OVC050,0.01,VWS V14.01,2013-02-13 03:15:00,
2013-02-12 21:20:00,47.6,39.7,29.84,NNW,340,2.0,3.0,74,0.00,,OVC050,0.01,VWS V14.01,2013-02-13 03:20:00,
2013-02-12 21:25:00,47.6,39.7,29.84,East,79,3.0,7.0,74,0.00,,OVC050,0.01,VWS V14.01,2013-02-13 03:25:00,
2013-02-12 21:30:00,47.5,39.6,29.84,ENE,69,4.0,10.0,74,0.00,,OVC050,0.01,VWS V14.01,2013-02-13 03:30:00,
2013-02-12 21:35:00,47.5,39.6,29.84,ESE,117,4.0,7.0,74,0.00,,OVC050,0.01,VWS V14.01,2013-02-13 03:35:00,
2013-02-12 21:40:00,47.5,39.6,29.84,ENE,76,2.0,2.0,74,0.00,,OVC050,0.01,VWS V14.01,2013-02-13 03:40:00,
2013-02-12 21:45:00,47.4,39.9,29.84,WSW,247,1.0,5.0,75,0.00,,OVC050,0.01,VWS V14.01,2013-02-13 03:45:00,
2013-02-12 21:50:00,47.4,39.9,29.83,SE,126,1.0,8.0,75,0.00,,OVC050,0.01,VWS V14.01,2013-02-13 03:50:00,
2013-02-12 21:55:00,47.4,39.9,29.84,ESE,123,3.0,4.0,75,0.00,,OVC050,0.01,VWS V14.01,2013-02-13 03:55:00,
2013-02-12 22:00:00,47.3,39.8,29.83,ESE,112,5.0,9.0,75,0.00,,OVC050,0.01,VWS V14.01,2013-02-13 04:00:00,
2013-02-12 22:05:00,47.3,39.8,29.84,SE,128,1.0,8.0,75,0.00,,OVC050,0.01,VWS V14.01,2013-02-13 04:05:00,
2013-02-12 22:10:00,47.3,40.1,29.84,ESE,116,0.0,8.0,76,0.00,,OVC050,0.01,VWS V14.01,2013-02-13 04:10:00,
2013-02-12 22:15:00,47.1,40.3,29.84,NE,43,0.0,5.0,77,0.00,,OVC050,0.01,VWS V14.01,2013-02-13 04:15:00,
2013-02-12 22:20:00,47.0,40.2,29.84,NNE,17,0.0,2.0,77,0.00,,OVC050,0.01,VWS V14.01,2013-02-13 04:20:00,
2013-02-12 22:25:00,46.8,40.3,29.85,NE,40,0.0,2.0,78,0.00,,OVC050,0.01,VWS V14.01,2013-02-13 04:25:00,
2013-02-12 22:30:00,46.7,40.2,29.84,NE,40,0.0,0.0,78,0.00,,OVC050,0.01,VWS V14.01,2013-02-13 04:30:00,
2013-02-12 22:35:00,46.7,40.2,29.84,NNE,22,0.0,2.0,78,0.00,,OVC050,0.01,VWS V14.01,2013-02-13 04:35:00,
2013-02-12 22:40:00,46.6,40.5,29.85,NNE,22,0.0,0.0,79,0.00,,OVC050,0.01,VWS V14.01,2013-02-13 04:40:00,
2013-02-12 22:45:00,46.5,40.3,29.85,NNW,339,0.0,1.0,79,0.00,,OVC050,0.01,VWS V14.01,2013-02-13 04:45:00,
2013-02-12 22:50:00,46.5,40.7,29.85,NNW,339,0.0,0.0,80,0.00,,OVC050,0.01,VWS V14.01,2013-02-13 04:50:00,
2013-02-12 22:55:00,46.4,40.6,29.85,NW,309,0.0,3.0,80,0.01,,OVC050,0.02,VWS V14.01,2013-02-13 04:55:00,
2013-02-12 23:00:00,46.3,40.8,29.86,NW,309,0.0,1.0,81,0.01,,OVC050,0.02,VWS V14.01,2013-02-13 05:00:00,
2013-02-12 23:05:00,46.1,40.9,29.85,NW,309,0.0,0.0,82,0.01,,OVC042,0.02,VWS V14.01,2013-02-13 05:05:00,
2013-02-12 23:10:00,46.0,41.1,29.85,NW,309,0.0,0.0,83,0.01,,OVC042,0.02,VWS V14.01,2013-02-13 05:10:00,
2013-02-12 23:15:00,45.8,41.2,29.85,NW,309,0.0,0.0,84,0.01,,OVC042,0.02,VWS V14.01,2013-02-13 05:15:00,
2013-02-12 23:20:00,45.5,41.3,29.84,NW,309,0.0,0.0,85,0.01,,OVC042,0.02,VWS V14.01,2013-02-13 05:20:00,
2013-02-12 23:25:00,45.3,41.4,29.84,NW,309,0.0,0.0,86,0.01,,OVC042,0.02,VWS V14.01,2013-02-13 05:25:00,
2013-02-12 23:30:00,45.1,41.5,29.84,NW,309,0.0,0.0,87,0.01,,OVC042,0.02,VWS V14.01,2013-02-13 05:30:00,
2013-02-12 23:35:00,45.1,41.5,29.83,North,355,0.0,1.0,87,0.01,,OVC042,0.02,VWS V14.01,2013-02-13 05:35:00,
2013-02-12 23:40:00,45.0,41.4,29.83,NE,34,0.0,3.0,87,0.01,,OVC042,0.02,VWS V14.01,2013-02-13 05:40:00,
2013-02-12 23:45:00,45.0,41.4,29.83,NNE,22,0.0,1.0,87,0.01,,OVC042,0.02,VWS V14.01,2013-02-13 05:45:00,
2013-02-12 23:50:00,44.9,41.3,29.83,NNE,22,0.0,2.0,87,0.01,,OVC042,0.02,VWS V14.01,2013-02-13 05:50:00,
2013-02-12 23:55:00,44.9,41.6,29.84,NNW,345,0.0,1.0,88,0.01,,OVC042,0.02,VWS V14.01,2013-02-13 05:55:00,